Location: Northcutt
(34.7304°N, 84.4305°W)
Time: 08:24:05
(UTC+00:00)

S-56A Canister/Altair - Pass Details

Date: 05 October 2022
Orbit: 638 x 2494 km, 38.9° (Epoch: 08 December)

Event Time Altitude Azimuth Distance (km) Brightness Sun altitude
Rises 01:53:45 0° 180° (S) 6,130 12.0 -32.5°
Enters shadow 01:57:44 - 169° (S) 5,531 11.6 -33.3°
Reaches altitude 10° 02:00:56 10° 158° (SSE) 5,133 - -33.9°
Maximum altitude 02:07:15 14° 133° (SE) 4,684 - -35.1°
Drops below altitude 10° 02:13:11 10° 107° (ESE) 4,807 - -36.3°
Sets 02:19:17 0° 85° (E) 5,489 - -37.4°
